When you browse on this site, cookies collect data to enhance your experience and personalize the content and advertising you see.
Visit our Privacy Policy to learn more. By continuing to use the site, you agree to this use of cookies and data.

Météo par heure à Xiancun

Ce jour, 5 Juillet, Dimanche

Heure Température Précipitation Vent Pression Humidité
00:00 +26°C° 2.1 mm 0 m/s 735 mmHg 92%
01:00 +27°C° 2.1 mm 1 m/s 734 mmHg 94%
02:00 +27°C° 0 mm 1 m/s 734 mmHg 95%
03:00 +27°C° 0.7 mm 1 m/s 734 mmHg 94%
04:00 +27°C° 0.7 mm 1 m/s 733 mmHg 94%
05:00 +26°C° 0.7 mm 1 m/s 733 mmHg 94%
06:00 +28°C° 0 mm 1 m/s 733 mmHg 90%
07:00 +29°C° 0 mm 1 m/s 733 mmHg 86%
08:00 +31°C° 0 mm 1 m/s 734 mmHg 80%
09:00 +33°C° 0 mm 1 m/s 734 mmHg 72%
10:00 +35°C° 0 mm 2 m/s 734 mmHg 63%
11:00 +37°C° 0 mm 3 m/s 733 mmHg 55%
12:00 +37°C° 0.2 mm 3 m/s 733 mmHg 57%
13:00 +37°C° 0.2 mm 3 m/s 732 mmHg 59%
14:00 +37°C° 0 mm 3 m/s 732 mmHg 56%
15:00 +36°C° 0.4 mm 3 m/s 732 mmHg 63%
16:00 +35°C° 0.4 mm 2 m/s 732 mmHg 70%
17:00 +33°C° 0.4 mm 1 m/s 732 mmHg 77%
18:00 +31°C° 0.1 mm 1 m/s 732 mmHg 81%
19:00 +30°C° 0.1 mm 1 m/s 732 mmHg 86%
20:00 +26°C° 0.1 mm 0 m/s 732 mmHg 90%
21:00 +26°C° 0 mm 0 m/s 732 mmHg 90%
22:00 +26°C° 0 mm 0 m/s 732 mmHg 90%
23:00 +26°C° 0 mm 0 m/s 733 mmHg 90%

Demain, 6 Juillet, Lundi

Heure Température Précipitation Vent Pression Humidité
00:00 +27°C° 0.3 mm 1 m/s 732 mmHg 91%
01:00 +27°C° 0.3 mm 1 m/s 732 mmHg 92%
02:00 +27°C° 0.3 mm 1 m/s 732 mmHg 93%
03:00 +27°C° 0 mm 1 m/s 732 mmHg 93%
04:00 +27°C° 0 mm 1 m/s 732 mmHg 93%
05:00 +27°C° 0 mm 1 m/s 732 mmHg 94%
06:00 +28°C° 0 mm 1 m/s 732 mmHg 90%
07:00 +29°C° 0 mm 1 m/s 732 mmHg 86%
08:00 +31°C° 0 mm 1 m/s 733 mmHg 82%
09:00 +32°C° 0 mm 2 m/s 733 mmHg 74%
10:00 +35°C° 0 mm 2 m/s 733 mmHg 66%
11:00 +36°C° 0 mm 2 m/s 733 mmHg 59%
12:00 +36°C° 0.5 mm 3 m/s 733 mmHg 60%
13:00 +36°C° 0.5 mm 3 m/s 733 mmHg 61%
14:00 +37°C° 0.5 mm 3 m/s 732 mmHg 62%
15:00 +36°C° 0.4 mm 2 m/s 732 mmHg 68%
16:00 +35°C° 0.4 mm 2 m/s 732 mmHg 74%
17:00 +33°C° 0.4 mm 1 m/s 732 mmHg 79%
18:00 +32°C° 0.1 mm 1 m/s 732 mmHg 83%
19:00 +30°C° 0.1 mm 1 m/s 733 mmHg 87%
20:00 +27°C° 0.1 mm 0 m/s 733 mmHg 91%
21:00 +26°C° 0 mm 0 m/s 733 mmHg 92%
22:00 +28°C° 0 mm 1 m/s 734 mmHg 93%
23:00 +28°C° 0 mm 1 m/s 734 mmHg 93%

Après-demain, 7 Juillet, Mardi

Heure Température Précipitation Vent Pression Humidité
00:00 +28°C° 0 mm 1 m/s 734 mmHg 93%
01:00 +27°C° 0 mm 1 m/s 734 mmHg 93%
02:00 +27°C° 0 mm 1 m/s 734 mmHg 94%
03:00 +27°C° 0 mm 1 m/s 734 mmHg 94%
04:00 +27°C° 0 mm 1 m/s 734 mmHg 94%
05:00 +27°C° 0 mm 1 m/s 734 mmHg 94%
06:00 +28°C° 0 mm 1 m/s 734 mmHg 91%
07:00 +29°C° 0 mm 1 m/s 734 mmHg 89%
08:00 +30°C° 0 mm 1 m/s 735 mmHg 87%
09:00 +31°C° 0 mm 1 m/s 735 mmHg 79%
10:00 +32°C° 0 mm 1 m/s 735 mmHg 72%
11:00 +35°C° 0 mm 2 m/s 735 mmHg 65%
12:00 +35°C° 0.1 mm 2 m/s 734 mmHg 64%
13:00 +35°C° 0.1 mm 2 m/s 734 mmHg 64%
14:00 +35°C° 0.1 mm 2 m/s 734 mmHg 64%
15:00 +34°C° 0.4 mm 2 m/s 734 mmHg 71%
16:00 +32°C° 0.4 mm 1 m/s 734 mmHg 77%
17:00 +31°C° 0.4 mm 1 m/s 734 mmHg 84%
18:00 +30°C° 0.6 mm 1 m/s 734 mmHg 87%
19:00 +27°C° 0.6 mm 0 m/s 734 mmHg 89%
20:00 +26°C° 0.6 mm 0 m/s 735 mmHg 92%
21:00 +26°C° 1 mm 0 m/s 735 mmHg 92%
22:00 +25°C° 1 mm 0 m/s 735 mmHg 92%
23:00 +27°C° 1 mm 1 m/s 735 mmHg 93%

8 Juillet, Mercredi

Heure Température Précipitation Vent Pression Humidité
00:00 +27°C° 0.4 mm 1 m/s 735 mmHg 93%
01:00 +27°C° 0.4 mm 1 m/s 734 mmHg 93%
02:00 +27°C° 0.4 mm 1 m/s 734 mmHg 94%
03:00 +26°C° 0.3 mm 1 m/s 733 mmHg 94%
04:00 +26°C° 0.3 mm 1 m/s 733 mmHg 94%
05:00 +26°C° 0.3 mm 1 m/s 733 mmHg 95%
06:00 +27°C° 0.2 mm 1 m/s 733 mmHg 94%
07:00 +27°C° 0.2 mm 1 m/s 733 mmHg 93%
08:00 +26°C° 0.2 mm 0 m/s 734 mmHg 93%
09:00 +28°C° 0.3 mm 1 m/s 734 mmHg 92%
10:00 +29°C° 0.3 mm 1 m/s 734 mmHg 90%
11:00 +29°C° 0.3 mm 1 m/s 734 mmHg 89%
12:00 +29°C° 0.4 mm 1 m/s 733 mmHg 88%
13:00 +30°C° 0.4 mm 1 m/s 733 mmHg 88%
14:00 +30°C° 0.4 mm 1 m/s 733 mmHg 87%
15:00 +27°C° 0.6 mm 0 m/s 732 mmHg 89%
16:00 +27°C° 0.6 mm 0 m/s 732 mmHg 90%
17:00 +26°C° 0.6 mm 0 m/s 732 mmHg 92%
18:00 +26°C° 0.2 mm 0 m/s 732 mmHg 93%
19:00 +27°C° 0.2 mm 1 m/s 733 mmHg 94%
20:00 +26°C° 0.2 mm 1 m/s 733 mmHg 94%
21:00 +26°C° 0.2 mm 1 m/s 733 mmHg 94%
22:00 +26°C° 0.2 mm 1 m/s 733 mmHg 94%
23:00 +26°C° 0.2 mm 1 m/s 733 mmHg 94%

9 Juillet, Jeudi

Heure Température Précipitation Vent Pression Humidité
00:00 +26°C° 0.2 mm 1 m/s 732 mmHg 94%
01:00 +26°C° 0.2 mm 1 m/s 732 mmHg 94%
02:00 +26°C° 0.2 mm 1 m/s 732 mmHg 94%
03:00 +25°C° 0 mm 1 m/s 731 mmHg 94%
04:00 +25°C° 0 mm 1 m/s 731 mmHg 94%
05:00 +25°C° 0 mm 1 m/s 731 mmHg 93%
06:00 +26°C° 0 mm 1 m/s 731 mmHg 92%
07:00 +25°C° 0 mm 0 m/s 732 mmHg 91%
08:00 +25°C° 0 mm 0 m/s 732 mmHg 90%
09:00 +27°C° 0.1 mm 1 m/s 732 mmHg 91%
10:00 +27°C° 0.1 mm 1 m/s 732 mmHg 91%
11:00 +27°C° 0.1 mm 1 m/s 732 mmHg 92%
12:00 +28°C° 0.5 mm 1 m/s 732 mmHg 91%
13:00 +28°C° 0.5 mm 1 m/s 732 mmHg 91%
14:00 +28°C° 0.5 mm 1 m/s 731 mmHg 90%
15:00 +28°C° 0.4 mm 1 m/s 731 mmHg 92%
16:00 +27°C° 0.4 mm 1 m/s 731 mmHg 94%
17:00 +27°C° 0.4 mm 1 m/s 731 mmHg 95%
18:00 +26°C° 0.4 mm 1 m/s 731 mmHg 96%
19:00 +26°C° 0.4 mm 1 m/s 732 mmHg 96%
20:00 +25°C° 0.4 mm 1 m/s 732 mmHg 97%
21:00 +25°C° 0 mm 1 m/s 732 mmHg 97%
22:00 +25°C° 0 mm 1 m/s 732 mmHg 96%
23:00 +25°C° 0 mm 1 m/s 732 mmHg 96%

10 Juillet, Vendredi

Heure Température Précipitation Vent Pression Humidité
00:00 +25°C° 0 mm 1 m/s 732 mmHg 95%
01:00 +25°C° 0 mm 1 m/s 732 mmHg 95%
02:00 +25°C° 0 mm 1 m/s 732 mmHg 94%
03:00 +25°C° 0 mm 1 m/s 732 mmHg 94%
04:00 +25°C° 0 mm 1 m/s 732 mmHg 93%
05:00 +25°C° 0 mm 1 m/s 732 mmHg 93%
06:00 +26°C° 0 mm 1 m/s 732 mmHg 90%
07:00 +27°C° 0 mm 1 m/s 732 mmHg 88%
08:00 +27°C° 0 mm 1 m/s 733 mmHg 86%
09:00 +28°C° 0 mm 1 m/s 733 mmHg 80%
10:00 +29°C° 0 mm 2 m/s 733 mmHg 74%
11:00 +30°C° 0 mm 2 m/s 733 mmHg 68%
12:00 +30°C° 0 mm 1 m/s 733 mmHg 71%
13:00 +29°C° 0 mm 1 m/s 733 mmHg 74%
14:00 +29°C° 0 mm 1 m/s 732 mmHg 76%
15:00 +28°C° 0 mm 1 m/s 732 mmHg 78%
16:00 +26°C° 0 mm 0 m/s 732 mmHg 80%
17:00 +26°C° 0 mm 0 m/s 732 mmHg 83%
18:00 +25°C° 0 mm 0 m/s 732 mmHg 83%
19:00 +25°C° 0 mm 0 m/s 732 mmHg 83%
20:00 +24°C° 0 mm 0 m/s 733 mmHg 84%
21:00 +24°C° 0 mm 0 m/s 733 mmHg 84%
22:00 +26°C° 0 mm 1 m/s 733 mmHg 85%
23:00 +26°C° 0 mm 1 m/s 733 mmHg 86%
Voir plus